Weather reports worldwide

Advertisment
High Wycombe, United Kingdom (3660): temperature & dewpoint: 10.08.2018 12:00:00 - 16.08.2018 12:00:00 (BST)High Wycombe, United Kingdom (3660): wind speed: 10.08.2018 12:00:00 - 16.08.2018 12:00:00 (BST)High Wycombe, United Kingdom (3660): wind direction: 10.08.2018 12:00:00 - 16.08.2018 12:00:00 (BST)High Wycombe, United Kingdom (3660): reduced air pressure: 10.08.2018 12:00:00 - 16.08.2018 12:00:00 (BST)High Wycombe, United Kingdom (3660): visibility: 10.08.2018 12:00:00 - 16.08.2018 12:00:00 (BST)High Wycombe, United Kingdom (3660): precipitation: 10.08.2018 12:00:00 - 16.08.2018 12:00:00 (BST)
Date & Time tt [°C] td [°C] ff [km/h] ff [kn] dd ppp [hPa] vv [km] rr [mm]
16.08.2018 12:00:00 13,2 12,2 11 6 W 1013,0 13 1,2
16.08.2018 11:00:00 15,0 14,8 9 5 W 1013,0 5 3,8
16.08.2018 10:00:00 14,9 14,6 4 2 WSW 1012,6 14 3,2
16.08.2018 09:00:00 15,5 15,2 11 6 WNW 1012,7 5 3,6
16.08.2018 08:00:00 15,9 15,7 15 8 SW 1012,3 3,9 1,0
16.08.2018 07:00:00 15,9 15,6 16 9 SW 1012,4 3,4 0,4
16.08.2018 06:00:00 15,8 15,1 16 9 SW 1012,5 2,8 0,0
16.08.2018 05:00:00 15,8 14,8 18 10 SW 1012,5 6 0,0
16.08.2018 04:00:00 16,4 14,5 15 8 SW 1013,1 30 0,0
16.08.2018 03:00:00 16,7 14,5 13 7 SW 1013,8 50 0,0
16.08.2018 02:00:00 16,7 14,9 16 9 SW 1014,0 29 0,0
16.08.2018 01:00:00 16,7 14,4 13 7 SSW 1014,6 30 0,0
16.08.2018 00:00:00 16,8 14,5 16 9 SW 1015,0 21 0,0
15.08.2018 23:00:00 17,6 14,2 15 8 SW 1015,4 35 0,0
15.08.2018 22:00:00 18,2 14,3 13 7 SW 1015,5 40 0,0
15.08.2018 21:00:00 18,6 14,3 13 7 SW 1015,5 30 0,0
15.08.2018 20:00:00 19,2 14,0 15 8 SW 1015,5 40 0,0
15.08.2018 19:00:00 20,0 13,6 9 5 SW 1015,3 40 0,0
15.08.2018 18:00:00 20,4 13,7 15 8 SW 1015,8 35 0,0
15.08.2018 17:00:00 20,9 14,7 11 6 WSW 1016,2 35 0,0
15.08.2018 16:00:00 21,1 15,3 11 6 W 1016,5 35 0,0
15.08.2018 15:00:00 21,4 15,5 11 6 W 1016,9 35 0,0
15.08.2018 14:00:00 19,9 15,3 11 6 W 1017,6 45 0,0
15.08.2018 13:00:00 19,5 15,1 11 6 W 1017,8 45 0,0
15.08.2018 12:00:00 18,8 15,2 9 5 WSW 1018,0 24 0,0
15.08.2018 11:00:00 18,5 14,9 9 5 W 1018,0 45 0,0
15.08.2018 10:00:00 19,2 15,3 11 6 WSW 1017,8 40 0,0
15.08.2018 09:00:00 17,9 14,3 11 6 WSW 1018,0 23 0,0
15.08.2018 08:00:00 17,2 14,4 9 5 W 1017,8 22 0,0
15.08.2018 07:00:00 15,9 13,1 13 7 W 1017,9 24 0,0
15.08.2018 06:00:00 15,7 12,6 15 8 W 1017,7 26 0,0
15.08.2018 05:00:00 15,8 13,4 13 7 W 1017,4 22 0,0
15.08.2018 04:00:00 15,6 13,4 11 6 W 1017,7 18 0,0
15.08.2018 03:00:00 15,0 13,0 13 7 W 1017,9 16 0,0
15.08.2018 02:00:00 14,3 12,6 8 4 W 1018,1 12 0,0
15.08.2018 01:00:00 14,4 12,4 9 5 W 1018,4 17 0,0
15.08.2018 00:00:00 14,6 12,5 9 5 W 1018,5 15 0,0
14.08.2018 23:00:00 15,2 12,6 8 4 W 1018,4 20 0,0
14.08.2018 22:00:00 15,8 12,3 11 6 WNW 1018,2 26 0,0
14.08.2018 21:00:00 17,1 12,5 15 8 WNW 1017,8 30 0,0
14.08.2018 20:00:00 18,8 13,7 15 8 W 1017,2 30 0,0
14.08.2018 19:00:00 20,3 14,3 13 7 W 1016,5 40 0,0
14.08.2018 18:00:00 21,8 14,7 11 6 W 1016,4 35 0,0
14.08.2018 17:00:00 21,9 14,3 13 7 W 1016,4 35 0,0
14.08.2018 16:00:00 23,0 15,5 13 7 W 1016,4 23 0,0
14.08.2018 15:00:00 21,7 14,0 11 6 W 1016,5 45 0,0
14.08.2018 14:00:00 23,0 14,2 13 7 W 1016,3 40 0,0
14.08.2018 13:00:00 21,0 13,1 11 6 WNW 1016,5 35 0,0
14.08.2018 12:00:00 20,2 12,1 13 7 W 1016,4 40 0,0
14.08.2018 11:00:00 18,6 12,3 11 6 WNW 1016,4 35 0,0
14.08.2018 10:00:00 17,6 14,1 11 6 WNW 1016,2 30 0,0
14.08.2018 09:00:00 15,4 13,0 8 4 W 1016,2 35 0,0
14.08.2018 08:00:00 14,8 13,3 4 2 W 1015,9 29 0,0
14.08.2018 07:00:00 13,4 12,3 4 2 WSW 1015,8 29 0,0
14.08.2018 06:00:00 12,7 12,2 4 2 WNW 1015,1 30 0,0
14.08.2018 05:00:00 12,0 11,0 8 4 WNW 1014,7 40 0,0
14.08.2018 04:00:00 12,5 11,5 5 3 NW 1014,4 40 0,0
14.08.2018 03:00:00 12,9 12,0 5 3 NNW 1013,8 28 0,0
14.08.2018 02:00:00 13,6 12,3 8 4 NNW 1013,6 29 0,0
14.08.2018 01:00:00 14,4 12,7 8 4 NNW 1013,0 35 0,0
14.08.2018 00:00:00 14,6 12,5 4 2 NW 1012,5 30 0,0
13.08.2018 23:00:00 15,4 12,3 5 3 NNW 1012,1 50 0,0
13.08.2018 22:00:00 16,4 13,4 8 4 NW 1011,4 45 0,0
13.08.2018 21:00:00 18,1 13,6 11 6 NNW 1010,6 50 0,0
13.08.2018 20:00:00 19,6 14,4 11 6 NNW 1009,5 50 0,0
13.08.2018 19:00:00 21,1 13,8 11 6 NNW 1008,3 50 0,0
13.08.2018 18:00:00 21,9 12,6 13 7 WNW 1007,9 50 0,0
13.08.2018 17:00:00 21,3 14,6 8 4 WNW 1007,8 30 0,0
13.08.2018 16:00:00 20,6 13,4 11 6 WNW 1007,4 45 0,0
13.08.2018 15:00:00 20,4 13,2 11 6 W 1007,4 40 0,0
13.08.2018 14:00:00 19,4 13,6 13 7 WNW 1007,4 30 0,0
13.08.2018 13:00:00 19,3 13,7 13 7 WNW 1007,1 40 0,2
13.08.2018 12:00:00 20,5 15,6 9 5 WNW 1006,8 18 0,0
13.08.2018 11:00:00 17,6 15,4 11 6 NNW 1006,9 15 0,0
13.08.2018 10:00:00 16,5 15,5 9 5 WNW 1006,6 12 0,0
13.08.2018 09:00:00 15,8 15,7 8 4 WNW 1006,3 8 0,0
13.08.2018 08:00:00 14,8 14,7 8 4 WNW 1006,3 3,2 0,0
13.08.2018 07:00:00 14,6 14,5 4 2 W 1005,8 6 0,0
13.08.2018 06:00:00 14,5 14,4 5 3 W 1005,4 6 0,0
13.08.2018 05:00:00 14,5 14,4 5 3 W 1005,3 4,3 0,0
13.08.2018 04:00:00 14,5 14,4 5 3 WSW 1005,6 2,4 0,0
13.08.2018 03:00:00 14,3 14,2 5 3 S 1005,8 2,7 0,0
13.08.2018 02:00:00 14,2 14,0 8 4 S 1006,1 4,1 0,0
13.08.2018 01:00:00 14,2 14,0 8 4 SSW 1006,5 6 0,0
13.08.2018 00:00:00 14,3 14,2 8 4 SW 1006,9 2,5 0,0
12.08.2018 23:00:00 14,4 14,1 8 4 SSE 1006,9 6 0,4
12.08.2018 22:00:00 14,7 14,3 5 3 SSW 1007,4 12 0,0
12.08.2018 21:00:00 14,8 14,2 5 3 S 1007,6 7 0,0
12.08.2018 20:00:00 15,0 14,3 9 5 S 1007,7 12 1,4
12.08.2018 19:00:00 16,2 13,4 9 5 S 1007,7 30 0,0
12.08.2018 18:00:00 17,4 14,7 9 5 S 1008,0 27 0,0
12.08.2018 17:00:00 17,6 14,1 11 6 SSW 1008,3 35 0,0
12.08.2018 16:00:00 17,1 13,1 13 7 SSW 1009,2 45 0,0
12.08.2018 15:00:00 17,2 12,6 16 9 SSW 1009,6 35 0,0
12.08.2018 14:00:00 17,2 14,6 11 6 S 1009,6 20 0,0
12.08.2018 13:00:00 17,8 12,9 18 10 SSW 1010,1 30 0,0
12.08.2018 12:00:00 18,7 12,5 16 9 SSW 1010,2 40 0,0
12.08.2018 11:00:00 17,1 14,1 13 7 SSW 1010,5 30 0,0
12.08.2018 10:00:00 16,4 15,4 9 5 S 1011,0 17 0,0
12.08.2018 09:00:00 15,5 14,3 11 6 SSW 1011,5 30 0,2
12.08.2018 08:00:00 15,5 15,1 13 7 SSW 1011,9 11 0,0
12.08.2018 07:00:00 15,1 15,0 8 4 S 1012,3 7 0,2
12.08.2018 06:00:00 15,2 15,1 11 6 S 1012,3 6 0,0
12.08.2018 05:00:00 15,1 14,9 11 6 S 1012,8 6 0,0
12.08.2018 04:00:00 15,1 14,9 11 6 S 1013,6 7 0,0
12.08.2018 03:00:00 15,2 15,0 11 6 S 1014,7 7 0,0
12.08.2018 02:00:00 15,0 14,9 9 5 S 1015,4 5 0,0
12.08.2018 01:00:00 14,9 14,7 11 6 S 1016,2 4,6 0,2
12.08.2018 00:00:00 14,7 14,5 11 6 S 1016,9 5 0,0
11.08.2018 23:00:00 14,6 14,3 9 5 SSE 1017,6 8 0,0
11.08.2018 22:00:00 14,7 14,4 11 6 S 1018,2 7 0,0
11.08.2018 21:00:00 14,6 14,4 11 6 S 1018,6 5 0,0
11.08.2018 20:00:00 14,9 14,5 11 6 SSW 1019,2 14 1,0
11.08.2018 19:00:00 15,1 14,6 8 4 SSW 1019,6 4,7 1,2
11.08.2018 18:00:00 16,3 13,7 11 6 SW 1020,0 35 0,0
11.08.2018 17:00:00 16,8 12,4 8 4 SSW 1020,3 50 0,0
11.08.2018 16:00:00 17,0 11,6 13 7 SSW 1021,0 45 0,0
11.08.2018 15:00:00 18,3 8,9 13 7 SSW 1021,4 35 0,0
11.08.2018 14:00:00 18,4 6,8 11 6 SSW 1021,8 50 0,0
11.08.2018 13:00:00 18,3 5,5 13 7 SSW 1022,0 45 0,0
11.08.2018 12:00:00 18,3 6,8 13 7 S 1022,5 24 0,0
11.08.2018 11:00:00 16,7 6,7 11 6 SSW 1022,8 35 0,0
11.08.2018 10:00:00 16,0 8,5 8 4 SSW 1023,0 50 0,0
11.08.2018 09:00:00 14,0 8,3 5 3 SW 1023,5 30 0,0
11.08.2018 08:00:00 12,3 8,3 2 1 SSW 1023,5 35 0,0
11.08.2018 07:00:00 11,2 8,4 2 1 NNW 1023,4 35 0,0
11.08.2018 06:00:00 8,4 7,0 4 2 WNW 1023,3 40 0,0
11.08.2018 05:00:00 7,9 6,6 4 2 NW 1022,9 50 0,0
11.08.2018 04:00:00 9,0 7,0 4 2 NNW 1022,9 45 0,0
11.08.2018 03:00:00 9,5 6,7 5 3 WNW 1022,8 50 0,0
11.08.2018 02:00:00 9,2 7,1 5 3 WNW 1022,6 40 0,0
11.08.2018 01:00:00 9,5 6,6 5 3 WNW 1022,3 50 0,0
11.08.2018 00:00:00 10,4 6,7 5 3 W 1022,0 50 0,0
10.08.2018 23:00:00 10,7 6,2 4 2 W 1021,5 50 0,0
10.08.2018 22:00:00 11,0 6,3 5 3 WNW 1020,8 45 0,0
10.08.2018 21:00:00 12,5 6,9 8 4 NNW 1019,9 50 0,0
10.08.2018 20:00:00 15,1 8,4 9 5 NNW 1018,8 50 0,0
10.08.2018 19:00:00 14,6 7,9 9 5 N 1018,1 45 0,0
10.08.2018 18:00:00 16,9 9,6 15 8 N 1017,1 50 0,0
10.08.2018 17:00:00 18,6 9,2 18 10 W 1016,1 40 0,0
10.08.2018 16:00:00 17,3 13,0 11 6 WNW 1016,1 40 0,0
10.08.2018 15:00:00 16,5 13,5 11 6 WNW 1016,1 45 0,0
10.08.2018 14:00:00 14,2 12,8 8 4 W 1016,2 35 0,2
10.08.2018 13:00:00 11,4 10,9 11 6 NE 1016,0 3,6 9,8
10.08.2018 12:00:00 12,5 11,2 8 4 NNW 1017,1 2,9 3,0

tt = temperature
td = dewpoint
ff = wind speed
dd = wind direction
ppp = reduced air pressure
vv = visibility
rr = precipitation

Next stations